Location: Bottom School (historical)
(37.9078°N, 89.3593°W)
Time: 23:55:56
(UTC+00:00)

STRAND 1 - Pass Details

Date: 03 April 2023
Orbit: 767 x 779 km, 98.4° (Epoch: 28 May)

Event Time Altitude Azimuth Distance (km) Brightness Sun altitude
Rises 02:23:03 0° 349° (N) 3,244 ? -23.7°
Reaches altitude 10° 02:27:14 10° 315° (NW) 2,311 ? -24.4°
Maximum altitude 02:28:35 11° 299° (WNW) 2,237 ? -24.6°
Drops below altitude 10° 02:29:56 10° 284° (WNW) 2,308 ? -24.9°
Sets 02:34:08 0° 250° (WSW) 3,229 ? -25.6°
